Weather History for Lakeville, MN

Change the Weather History Date:

Tuesday, July 22, 2014

  Actual Average Record
Temperature  
Mean Temperature 72 °F -  
Max Temperature 80 °F 82 °F 93 °F (1984)
Min Temperature 64 °F 60 °F 48 °F (1985)
Cooling Degree Days 7    
Growing Degree Days 22 (Base 50)    
Moisture  
Dew Point 65 °F    
Average Humidity 69    
Maximum Humidity 94    
Minimum Humidity 47    
Precipitation  
Precipitation 0.00 in - - ()
Sea Level Pressure  
Sea Level Pressure 29.98 in    
Wind  
Wind Speed 8 mph (WNW)    
Max Wind Speed 15 mph    
Max Gust Speed 23 mph    
Visibility 10 miles    
Events      
Averages and records for this station are not official NWS values.
T = Trace of Precipitation, MM = Missing Value Source: NWS Daily Summary

Daily Weather History Graph

Daily Weather History Graph

Search for Another Location

Airport:

Trip Planner

Search our weather history database for the weather conditions in past years. The results will help you decide how hot, cold, wet, or windy it might be!

Date:

Astronomy

Jul. 22, 2014 Rise Set
Actual Time 5:48 AM CDT 8:49 PM CDT
Civil Twilight 5:13 AM CDT 9:24 PM CDT
Nautical Twilight 4:29 AM CDT 10:08 PM CDT
Astronomical Twilight 3:36 AM CDT 11:01 PM CDT
Moon 2:24 AM CDT (7/22) 5:26 PM CDT (7/22)
Length of Visible Light 16h 10m
Length of Day
15h 00m
Waning Crescent, 16% of the Moon is Illuminated
Jul 22
Waning Crescent
Jul 26
New
Aug 3
First Quarter
Aug 10
Full
Aug 17
Last Quarter

Hourly Weather History & Observations

Time (CDT) Temp. Heat Index Dew Point Humidity Pressure Visibility Wind Dir Wind Speed Gust Speed Precip Events Conditions
12:13 AM 78.8 °F - 73.4 °F 83% 29.82 in 10.0 mi South 6.9 mph - N/A   Clear
12:33 AM 78.8 °F - 73.4 °F 83% 29.82 in 10.0 mi South 6.9 mph - N/A   Clear
12:53 AM 78.8 °F - 73.4 °F 83% 29.82 in 10.0 mi South 11.5 mph - N/A   Clear
1:13 AM 78.8 °F - 73.4 °F 83% 29.81 in 10.0 mi South 10.4 mph 18.4 mph N/A   Clear
1:33 AM 78.8 °F - 73.4 °F 83% 29.81 in 10.0 mi South 9.2 mph - N/A   Clear
1:53 AM 78.8 °F - 73.4 °F 83% 29.82 in 10.0 mi South 5.8 mph - N/A   Clear
2:13 AM 78.8 °F - 73.4 °F 83% 29.81 in 7.0 mi SSW 10.4 mph - N/A   Clear
2:33 AM 78.8 °F - 73.4 °F 83% 29.81 in 7.0 mi South 4.6 mph - N/A   Clear
2:53 AM 78.8 °F - 73.4 °F 83% 29.81 in 7.0 mi South 3.5 mph - N/A   Clear
3:13 AM 78.8 °F - 73.4 °F 83% 29.81 in 7.0 mi SW 3.5 mph - N/A   Clear
3:33 AM 78.8 °F - 75.2 °F 89% 29.81 in 7.0 mi SW 4.6 mph - N/A   Scattered Clouds
3:53 AM 78.8 °F - 73.4 °F 83% 29.81 in 7.0 mi Calm Calm - N/A   Mostly Cloudy
4:13 AM 78.8 °F - 73.4 °F 83% 29.81 in 10.0 mi WSW 3.5 mph - N/A   Mostly Cloudy
4:33 AM 78.8 °F - 73.4 °F 83% 29.81 in 7.0 mi SW 3.5 mph - N/A   Mostly Cloudy
4:53 AM 78.8 °F - 73.4 °F 83% 29.82 in 7.0 mi WSW 3.5 mph - N/A   Clear
5:13 AM 77.0 °F - 73.4 °F 89% 29.83 in 7.0 mi WSW 3.5 mph - N/A   Clear
5:33 AM 77.0 °F - 73.4 °F 89% 29.84 in 7.0 mi WSW 5.8 mph - N/A   Scattered Clouds
5:53 AM 77.0 °F - 75.2 °F 94% 29.86 in 7.0 mi West 11.5 mph - N/A   Mostly Cloudy
6:13 AM 75.2 °F - 71.6 °F 89% 29.87 in 7.0 mi WNW 10.4 mph 23.0 mph N/A   Scattered Clouds
6:33 AM 75.2 °F - 66.2 °F 73% 29.88 in 10.0 mi WNW 13.8 mph 17.3 mph N/A   Scattered Clouds
6:53 AM 73.4 °F - 62.6 °F 69% 29.89 in 10.0 mi NW 11.5 mph - N/A   Clear
7:13 AM 73.4 °F - 64.4 °F 73% 29.93 in 10.0 mi West 8.1 mph 17.3 mph N/A   Clear
7:33 AM 73.4 °F - 64.4 °F 73% 29.94 in 10.0 mi WNW 15.0 mph 18.4 mph N/A   Clear
7:53 AM 73.4 °F - 64.4 °F 73% 29.94 in 10.0 mi WNW 10.4 mph - N/A   Clear
8:13 AM 73.4 °F - 64.4 °F 73% 29.96 in 10.0 mi WNW 11.5 mph 16.1 mph N/A   Clear
8:33 AM 73.4 °F - 64.4 °F 73% 29.95 in 10.0 mi NW 10.4 mph 16.1 mph N/A   Clear
8:53 AM 71.6 °F - 64.4 °F 78% 29.92 in 10.0 mi NW 11.5 mph 16.1 mph N/A   Clear
9:13 AM 73.4 °F - 64.4 °F 73% 29.91 in 10.0 mi NNW 15.0 mph 20.7 mph N/A   Clear
9:33 AM 73.4 °F - 64.4 °F 73% 29.94 in 10.0 mi West 4.6 mph - N/A   Clear
9:53 AM 75.2 °F - 66.2 °F 73% 29.96 in 10.0 mi West 9.2 mph - N/A   Scattered Clouds
10:13 AM 75.2 °F - 66.2 °F 73% 29.96 in 10.0 mi NW 10.4 mph - N/A   Scattered Clouds
10:33 AM 75.2 °F - 66.2 °F 73% 29.95 in 10.0 mi NW 10.4 mph - N/A   Scattered Clouds
10:53 AM 77.0 °F - 66.2 °F 69% 29.96 in 10.0 mi NW 15.0 mph 19.6 mph N/A   Scattered Clouds
11:13 AM 77.0 °F - 66.2 °F 69% 29.98 in 10.0 mi NW 13.8 mph 21.9 mph N/A   Scattered Clouds
11:33 AM 77.0 °F - 66.2 °F 69% 29.98 in 10.0 mi NW 11.5 mph 18.4 mph N/A   Mostly Cloudy
11:53 AM 77.0 °F - 64.4 °F 65% 29.99 in 10.0 mi NW 13.8 mph - N/A   Mostly Cloudy
12:13 PM 77.0 °F - 64.4 °F 65% 30.00 in 10.0 mi NW 11.5 mph 16.1 mph N/A   Scattered Clouds
12:33 PM 77.0 °F - 64.4 °F 65% 30.00 in 10.0 mi North 13.8 mph 17.3 mph N/A   Scattered Clouds
12:53 PM 77.0 °F - 64.4 °F 65% 30.01 in 10.0 mi WNW 11.5 mph 17.3 mph N/A   Scattered Clouds
1:13 PM 78.8 °F - 66.2 °F 65% 30.01 in 10.0 mi WNW 11.5 mph - N/A   Scattered Clouds
1:33 PM 78.8 °F - 64.4 °F 61% 30.02 in 10.0 mi NW 9.2 mph - N/A   Scattered Clouds
1:53 PM 78.8 °F - 64.4 °F 61% 30.02 in 10.0 mi WNW 12.7 mph 16.1 mph N/A   Clear
2:13 PM 78.8 °F - 64.4 °F 61% 30.02 in 10.0 mi WNW 10.4 mph 16.1 mph N/A   Scattered Clouds
2:33 PM 78.8 °F - 64.4 °F 61% 30.03 in 10.0 mi WNW 10.4 mph - N/A   Scattered Clouds
2:52 PM 80.6 °F 82.3 °F 64.4 °F 58% 30.03 in 10.0 mi NW 9.2 mph - N/A   Scattered Clouds
3:13 PM 78.8 °F - 64.4 °F 61% 30.03 in 10.0 mi WNW 9.2 mph - N/A   Scattered Clouds
3:33 PM 80.6 °F 82.7 °F 66.2 °F 61% 30.04 in 10.0 mi WNW 13.8 mph - N/A   Scattered Clouds
3:53 PM 80.6 °F 82.3 °F 64.4 °F 58% 30.04 in 10.0 mi WNW 4.6 mph 18.4 mph N/A   Mostly Cloudy
4:13 PM 78.8 °F - 62.6 °F 57% 30.04 in 10.0 mi NNW 8.1 mph - N/A   Scattered Clouds
4:33 PM 80.6 °F 81.5 °F 60.8 °F 51% 30.05 in 10.0 mi NW 10.4 mph 16.1 mph N/A   Scattered Clouds
4:53 PM 80.6 °F 81.8 °F 62.6 °F 54% 30.06 in 10.0 mi NW 8.1 mph - N/A   Scattered Clouds
5:13 PM 80.6 °F 81.8 °F 62.6 °F 54% 30.06 in 10.0 mi WNW 8.1 mph - N/A   Scattered Clouds
5:33 PM 80.6 °F 81.5 °F 60.8 °F 51% 30.07 in 10.0 mi NW 11.5 mph - N/A   Scattered Clouds
5:53 PM 80.6 °F 81.5 °F 60.8 °F 51% 30.07 in 10.0 mi WNW 11.5 mph 18.4 mph N/A   Clear
6:13 PM 78.8 °F - 60.8 °F 54% 30.07 in 10.0 mi NW 11.5 mph 17.3 mph N/A   Clear
6:33 PM 78.8 °F - 60.8 °F 54% 30.08 in 10.0 mi WNW 11.5 mph 18.4 mph N/A   Clear
6:53 PM 78.8 °F - 57.2 °F 47% 30.08 in 10.0 mi NW 15.0 mph - N/A   Clear
7:13 PM 78.8 °F - 57.2 °F 47% 30.09 in 10.0 mi NW 9.2 mph - N/A   Clear
7:33 PM 77.0 °F - 57.2 °F 50% 30.10 in 10.0 mi NW 9.2 mph 17.3 mph N/A   Clear
7:53 PM 75.2 °F - 55.4 °F 50% 30.10 in 10.0 mi NW 9.2 mph 16.1 mph N/A   Clear
8:13 PM 75.2 °F - 55.4 °F 50% 30.11 in 10.0 mi NW 9.2 mph - N/A   Clear
8:33 PM 73.4 °F - 55.4 °F 53% 30.11 in 10.0 mi NW 10.4 mph - N/A   Clear
8:53 PM 73.4 °F - 55.4 °F 53% 30.11 in 10.0 mi NW 9.2 mph - N/A   Clear
9:13 PM 71.6 °F - 55.4 °F 57% 30.12 in 10.0 mi NNW 5.8 mph - N/A   Clear
9:33 PM 69.8 °F - 55.4 °F 60% 30.13 in 10.0 mi NW 5.8 mph - N/A   Clear
9:53 PM 66.2 °F - 57.2 °F 73% 30.13 in 10.0 mi NNW 4.6 mph - N/A   Clear
10:13 PM 66.2 °F - 55.4 °F 68% 30.14 in 10.0 mi NW 3.5 mph - N/A   Clear
10:33 PM 66.2 °F - 55.4 °F 68% 30.14 in 10.0 mi WNW 4.6 mph - N/A   Clear
10:53 PM 64.4 °F - 55.4 °F 73% 30.15 in 10.0 mi NNW 5.8 mph - N/A   Clear
11:13 PM 64.4 °F - 55.4 °F 73% 30.15 in 10.0 mi NNW 5.8 mph - N/A   Clear
11:33 PM 68.0 °F - 55.4 °F 64% 30.15 in 10.0 mi NNW 5.8 mph - N/A   Clear
11:53 PM 66.2 °F - 55.4 °F 68% 30.16 in 10.0 mi NW 4.6 mph - N/A   Clear